Theta_e
333 332 330 330 333 334 333 334 335 335 335 334 334 332 331 331 332 332 332 332 331 331 333 330 327 328 329 327 327 331 334 336 335 333 333 333 333 333 333 333 333 333
335 333 330 330 333 335 334 334 335 335 335 333 333 332 332 332 332 332 332 332 332 332 334 332 329 329 330 328 328 330 334 336 336 335 334 333 333 333 333 333 333 333
334 332 331 330 333 335 335 334 335 336 335 334 334 333 333 333 332 332 333 333 333 333 334 333 330 331 332 331 329 330 333 335 336 336 334 333 333 333 333 333 333 334
331 329 330 331 332 335 336 336 336 336 337 336 335 334 334 333 332 333 334 334 334 334 334 334 333 333 334 333 331 331 332 334 336 336 335 333 333 333 333 333 334 333
327 327 328 332 335 336 338 338 338 337 337 337 336 335 335 334 333 334 334 335 335 335 335 335 334 335 335 334 333 332 332 333 335 336 335 334 334 334 334 334 334 334
327 328 329 332 336 338 339 340 339 338 338 337 337 337 336 335 335 335 335 335 335 335 335 335 335 335 335 334 333 333 333 333 335 336 336 334 334 334 334 334 334 334
329 330 332 333 336 339 341 341 341 341 339 338 338 337 336 337 337 336 336 336 335 335 335 335 335 335 335 334 333 333 333 334 335 336 336 334 334 334 335 334 334 334
332 333 334 336 337 339 342 343 343 342 341 340 339 338 337 337 337 337 338 337 336 336 336 335 335 336 336 335 333 333 333 335 335 336 336 335 334 334 334 334 334 334
334 334 335 338 339 341 343 344 344 343 342 341 340 339 338 337 338 338 339 338 337 337 337 336 336 336 336 335 334 333 334 334 335 336 336 335 334 334 334 334 334 334
336 335 337 339 341 342 344 345 345 344 343 342 340 340 339 337 338 340 340 339 339 338 338 337 336 336 336 336 336 335 334 334 335 336 337 336 335 334 334 334 334 334
338 338 338 339 342 344 345 346 346 344 343 342 341 341 339 338 339 340 340 340 340 339 338 337 336 336 336 337 337 336 335 335 336 337 337 336 335 334 334 334 334 333
339 338 338 338 341 344 346 346 346 345 344 343 342 341 340 339 340 340 340 340 341 340 339 337 336 336 336 337 338 338 336 336 337 338 337 336 335 335 335 334 334 333
338 337 337 337 338 342 344 345 346 346 346 345 343 342 341 341 341 340 340 341 341 341 340 338 337 336 336 336 337 338 337 336 337 338 338 336 336 336 335 334 334 333
337 335 336 337 337 338 340 342 344 345 346 346 344 343 342 342 340 340 340 342 342 341 340 339 338 337 337 337 337 338 338 337 337 338 338 337 336 336 335 335 334 332
336 334 335 336 335 333 333 337 342 344 346 346 346 345 343 342 340 340 342 343 342 342 341 339 339 338 338 337 337 337 338 338 338 338 338 337 337 336 335 334 333 332
335 333 334 335 331 328 329 334 339 342 344 346 346 346 344 343 342 342 343 343 342 342 341 340 339 338 338 338 338 337 338 339 339 338 338 338 337 336 335 334 333 332
331 332 332 333 331 327 330 337 339 340 342 345 346 346 345 344 344 344 344 343 343 342 341 340 340 339 338 339 338 338 338 338 339 338 338 337 337 336 335 334 332 332
327 330 331 332 331 331 335 341 341 340 342 345 346 346 345 345 345 344 344 343 343 343 342 340 340 339 338 339 339 338 338 338 338 338 338 338 337 336 335 334 332 332
326 329 331 332 332 333 338 343 343 342 342 344 345 345 345 345 345 344 344 344 343 343 342 341 340 339 339 339 339 338 338 338 338 338 337 337 337 336 335 333 333 332
329 331 332 332 333 337 342 344 344 344 343 343 344 345 345 345 345 345 344 344 343 343 342 341 340 340 339 339 339 338 338 338 338 338 337 336 336 335 334 333 333 332
333 334 334 335 337 340 343 345 344 345 344 344 344 345 345 345 345 345 344 344 343 343 342 341 341 340 339 339 338 338 338 338 338 338 337 336 336 335 334 334 333 332
333 334 335 337 338 340 342 344 346 346 345 345 345 344 345 345 345 345 344 344 343 343 343 342 341 341 340 339 338 339 339 338 338 337 337 336 336 336 335 334 333 332
332 332 332 333 336 338 340 341 344 346 346 345 345 345 345 345 345 344 344 343 343 343 343 342 342 341 340 339 339 339 339 338 337 337 337 336 336 336 335 334 333 331
331 332 331 331 332 336 338 340 342 344 346 346 345 345 345 345 345 345 344 343 343 343 343 343 342 341 340 339 339 339 339 339 338 337 337 337 336 335 335 334 333 332
327 331 332 331 331 333 335 338 341 343 345 345 346 345 345 345 345 345 344 344 343 343 343 342 342 341 340 339 339 339 340 339 339 338 337 337 336 335 335 334 333 332
326 329 332 332 332 333 332 333 337 341 343 344 345 345 345 344 344 345 344 344 344 343 342 342 342 341 340 340 340 340 340 340 339 338 338 337 336 334 334 334 333 332
Wind_Speed
36 33 30 29 31 32 31 33 36 37 36 35 34 33 32 31 30 29 30 32 34 35 34 32 30 29 30 30 30 29 27 26 25 25 25 25 25 24 24 25 25 24
38 35 32 31 32 35 34 33 35 37 36 35 34 34 33 32 31 30 30 31 33 34 34 33 32 31 31 32 32 31 30 28 26 25 26 26 25 25 25 25 25 25
39 37 35 35 35 37 37 36 36 37 36 35 35 35 34 33 32 31 30 31 32 33 34 34 33 33 33 33 34 34 33 31 28 27 27 26 26 25 25 25 25 24
40 39 39 38 37 38 40 40 39 39 38 37 35 35 35 34 34 33 32 32 32 33 33 34 34 35 35 35 35 35 35 32 29 28 28 27 26 26 25 25 25 25
41 42 43 41 39 41 43 44 43 42 40 38 36 35 36 35 35 35 34 34 34 34 34 34 35 36 37 37 36 37 36 34 31 30 29 28 27 27 26 26 26 27
40 42 44 43 42 44 46 46 46 45 42 39 37 37 36 36 37 36 36 36 35 35 35 35 36 36 38 39 38 38 38 36 34 32 31 30 29 28 28 28 28 28
40 41 44 44 44 45 47 48 47 47 44 40 39 38 36 36 37 37 37 37 37 36 36 36 37 38 38 40 40 40 39 38 35 33 33 32 30 30 30 29 29 29
39 41 44 45 46 46 47 48 48 48 46 42 41 40 37 37 38 38 38 39 38 37 36 36 38 38 39 40 41 41 40 40 38 36 35 34 32 32 32 31 30 30
38 40 43 45 47 47 48 49 49 48 47 44 43 42 40 39 39 40 40 40 39 38 37 37 38 39 39 39 40 41 42 42 40 38 37 36 35 34 33 32 31 31
39 39 42 45 47 48 48 49 50 49 48 47 46 44 43 41 41 42 41 41 40 39 38 38 39 39 40 40 40 41 42 43 42 40 38 38 37 36 35 34 33 32
37 39 41 43 46 48 49 49 49 50 49 49 48 47 45 44 43 44 43 43 42 40 39 40 40 40 41 42 41 40 41 43 43 42 40 39 39 37 36 35 34 32
36 38 41 43 45 47 49 49 50 50 50 50 50 49 48 46 46 46 46 46 44 41 40 40 40 41 41 42 43 41 41 42 43 43 41 40 40 39 37 36 34 31
37 37 38 40 43 45 48 50 51 51 50 50 50 50 49 48 48 48 48 48 46 43 41 41 40 40 41 42 43 43 42 42 43 44 43 41 41 40 38 36 34 31
40 38 38 39 41 42 45 48 51 51 50 50 50 51 51 50 49 49 49 49 47 44 43 42 41 40 40 41 43 44 43 42 43 44 44 43 42 40 39 36 34 32
44 42 41 42 43 44 45 47 50 51 50 50 51 51 52 51 50 50 51 50 49 46 44 44 43 42 41 41 42 44 44 44 43 44 44 44 42 41 39 36 35 33
48 47 45 46 47 48 49 49 49 50 50 51 52 52 52 52 51 51 51 52 50 48 46 46 46 44 43 43 42 43 45 45 44 44 44 45 44 41 39 38 36 34
45 48 48 47 47 49 50 50 49 48 49 52 53 54 54 53 53 53 53 53 52 50 49 49 48 46 45 45 44 44 45 46 46 44 44 44 45 43 41 39 37 35
41 46 49 47 46 46 48 49 49 48 49 52 54 55 55 54 54 54 55 55 54 52 52 52 50 48 47 47 46 46 47 47 47 45 44 44 46 44 43 40 38 37
42 45 49 49 48 47 48 49 49 49 50 52 54 55 56 56 56 56 56 56 55 54 55 54 53 50 49 48 48 48 49 49 49 47 44 44 46 45 43 42 39 38
47 48 50 51 50 50 50 50 51 51 51 52 54 55 56 57 57 57 56 56 56 56 56 57 55 52 50 50 50 51 51 50 50 48 44 42 44 44 43 43 41 39
45 49 51 52 53 52 52 52 52 52 52 53 54 55 56 58 58 58 58 57 57 58 58 57 56 53 51 51 50 51 51 50 50 49 45 43 43 43 43 43 42 39
35 41 46 50 52 53 54 53 53 53 53 53 54 55 56 58 59 59 59 58 58 58 59 58 57 55 53 51 51 51 50 50 50 50 48 45 44 44 43 43 42 40
31 34 40 46 49 51 53 55 55 54 53 53 54 55 56 57 59 59 59 59 59 59 60 60 59 57 55 53 52 52 52 51 52 52 50 48 47 46 44 43 43 41
30 32 35 41 48 51 53 54 55 55 54 54 54 56 57 58 59 59 60 60 61 61 61 61 60 59 57 55 53 54 54 53 53 53 52 50 49 48 46 44 43 41
30 32 33 36 44 51 52 53 56 56 55 54 54 55 57 58 58 59 60 60 61 61 61 61 61 60 58 56 55 55 54 54 53 53 52 51 51 50 48 45 44 41
29 31 33 34 38 46 50 54 58 59 57 56 55 55 57 58 58 58 59 60 60 61 61 60 60 61 60 58 56 56 55 55 55 54 54 53 52 52 50 47 45 43
Wind_Direction
220 221 227 227 221 221 224 220 216 219 224 228 231 232 231 230 228 226 227 225 223 224 228 227 222 221 222 223 224 227 229 228 227 228 231 233 235 234 232 232 232 232
221 224 229 231 224 219 223 225 220 219 223 228 231 233 233 232 230 228 228 226 225 225 227 229 226 222 221 222 224 226 229 230 228 228 230 233 234 233 232 233 233 234
223 228 231 232 228 222 222 225 223 221 224 228 230 231 233 233 232 230 228 228 228 228 228 228 227 225 223 221 223 226 229 230 229 228 230 234 234 234 234 233 234 234
227 232 234 233 230 226 223 222 222 223 224 226 229 230 232 233 234 231 229 229 230 230 231 230 227 226 225 223 223 226 229 231 231 230 231 233 234 235 234 233 233 233
231 234 235 233 229 227 224 221 222 223 224 225 227 228 230 232 232 232 231 230 230 231 232 232 230 227 226 225 224 226 228 231 231 231 231 232 233 233 233 232 232 232
229 232 233 233 229 225 224 223 222 223 224 225 226 227 229 230 231 233 232 231 230 230 232 233 231 229 228 227 226 226 228 229 231 231 231 231 231 232 231 231 232 233
226 228 230 231 230 226 223 223 223 224 225 226 227 228 229 230 232 233 234 232 230 230 232 232 231 230 229 228 227 227 227 228 230 231 231 231 230 230 231 232 233 234
226 228 229 229 229 227 223 222 222 224 225 226 227 229 231 232 234 234 234 233 232 231 230 231 231 230 229 227 227 226 226 227 229 230 231 230 229 230 232 233 234 236
227 228 229 228 227 226 224 222 222 223 225 226 228 230 231 234 235 235 235 234 232 231 229 228 229 230 228 227 227 226 226 226 229 230 229 229 230 231 233 234 236 238
227 229 229 228 227 226 225 224 223 223 224 226 229 230 231 233 234 234 234 234 232 231 229 227 227 228 228 228 228 228 227 227 229 230 230 230 232 233 234 235 237 240
227 228 229 229 227 226 226 225 225 224 224 226 227 228 230 232 233 232 233 234 233 231 229 227 226 226 227 228 230 230 229 229 230 230 230 231 233 234 235 237 239 242
227 228 229 230 228 227 227 226 227 226 225 225 226 226 228 230 231 232 233 234 233 231 229 227 226 225 227 229 231 231 231 231 231 231 230 232 233 235 235 237 241 242
228 230 231 230 230 229 227 227 228 227 226 225 225 226 227 228 229 231 234 234 232 231 230 228 225 224 225 228 230 232 232 231 231 231 230 230 233 234 235 237 239 239
233 233 232 231 232 231 230 229 228 227 227 226 225 225 226 227 229 231 232 231 230 230 231 229 226 223 224 226 229 231 232 230 230 230 229 229 231 232 234 236 237 237
236 235 232 232 233 233 232 230 228 226 227 227 225 225 225 227 229 230 229 228 228 229 230 229 226 225 225 226 228 229 229 229 229 229 228 228 229 231 232 234 235 236
238 236 234 233 234 235 234 231 228 226 226 226 226 225 226 227 228 228 227 226 227 227 228 228 226 226 228 228 229 229 228 228 229 228 228 229 229 230 231 232 234 235
241 238 236 236 237 236 234 231 229 227 226 226 226 225 225 226 227 226 225 225 226 226 226 226 227 228 229 228 230 231 229 228 228 228 228 229 229 230 231 231 231 232
244 239 237 238 239 236 234 233 231 229 226 225 225 226 226 225 225 225 225 225 225 225 225 226 228 230 229 228 230 231 230 229 228 228 229 229 229 230 231 231 229 231
245 240 237 237 238 237 235 234 232 229 227 226 226 226 226 225 225 225 225 225 225 224 225 225 228 230 229 228 229 230 230 230 229 229 230 230 230 231 231 229 228 230
244 240 237 236 235 234 233 232 231 230 229 227 226 226 225 225 225 225 225 225 225 225 225 225 227 229 229 228 227 228 229 229 229 229 229 231 232 231 230 229 229 230
244 237 236 233 231 230 230 231 231 230 229 228 227 226 225 225 226 225 225 225 225 225 225 225 226 229 230 228 227 227 227 227 228 228 229 232 233 231 231 230 230 232
255 242 236 233 230 229 229 229 229 230 229 228 227 227 226 226 226 226 225 225 225 225 225 225 227 229 229 229 227 226 226 226 226 227 229 232 233 231 231 231 231 232
273 257 245 239 235 231 229 229 229 229 229 228 228 227 227 226 226 226 226 225 225 225 224 225 227 229 229 228 226 224 224 225 226 227 228 230 231 230 230 230 231 232
278 267 254 245 241 237 233 230 228 227 228 228 228 228 227 227 227 226 226 226 226 225 225 226 227 229 229 227 225 223 223 224 224 225 226 228 229 229 228 229 230 231
278 275 265 254 246 241 239 236 231 228 227 227 228 229 229 229 228 226 226 226 226 226 227 226 227 228 228 226 225 223 223 224 224 223 223 225 226 225 225 227 229 230
278 280 275 266 252 244 243 241 236 231 228 227 228 229 230 229 228 228 227 227 227 227 226 226 226 228 228 227 225 224 222 223 223 222 222 224 224 222 222 224 226 228